Regional Weather Roundup
Issued by NWS State College, PA

Home | Current Version | Previous Version | Text Only | Print | Product List | Glossary Off
Versions: 1 2 3 4 5 6 7 8 9 10 11 12 13 14 15 16 17 18 19 20 21 22 23 24 25 26 27 28 29 30 31 32 33 34 35 36 37 38 39 40 41 42 43 44 45 46 47 48 49 50

000
ASUS41 KCTP 031210
RWRCTP

REGIONAL WEATHER ROUNDUP
NATIONAL WEATHER SERVICE STATE COLLEGE PA
800 AM EDT FRI JUL 03 2015

Note: "fair" indicates few or no clouds below 12,000 feet with no
significant weather and/or obstructions to visibility.

* = STATION THAT DOES NOT REPORT PRECIPITATION /E.G. RAIN...SNOW...ETC/
    THUNDER OR FOG.

PAZ002>004-007>009-013>016-020>023-029>032-031300-
WESTERN PENNSYLVANIA

CITY           SKY/WX    TMP DP  RH WIND       PRES   REMARKS
ERIE           SUNNY     59  49  69 CALM      30.01R
MEADVILLE      SUNNY     56  50  80 E5        30.01S
FRANKLIN*      SUNNY     54  48  82 NE6       30.02S
NEW CASTLE     FAIR      55  55 100 CALM      30.01R
BEAVER COUNTY  SUNNY     59  55  88 CALM      29.99S
BUTLER*        SUNNY     57  55  94 E6        30.00S
PITTSBURGH INT PTSUNNY   61  55  81 E3        29.97F
PITTSBURGH     SUNNY     61  53  75 E5        29.97S
INDIANA*       SUNNY     59  57  94 MISG      30.03S
LATROBE        MOSUNNY   57  57 100 CALM      29.99S
WASHINGTON CO* NOT AVBL
$$

PAZ004>006-010>012-017>019-024>028-033>037-041-042-045-046-049>053-031300-
CENTRAL PENNSYLVANIA

CITY           SKY/WX    TMP DP  RH WIND       PRES   REMARKS
BRADFORD       SUNNY     54  50  86 E3        30.03R
DUBOIS         SUNNY     59  52  77 E5        30.01R
CLEARFIELD     PTSUNNY   56  51  84 N3        30.02R
JOHNSTOWN      SUNNY     58  56  93 CALM      30.01S FOG
ALTOONA        CLOUDY    61  59  93 CALM      30.02R FOG
STATE COLLEGE  SUNNY     59  55  88 NE6       30.01R
WILLIAMSPORT   MOSUNNY   62  53  72 CALM      30.00R
SELINSGROVE    SUNNY     64  57  78 NE3       30.01R
FT INDIANTOWN  SUNNY     66  57  72 NE2       29.99R
CAPITAL CITY   SUNNY     67  58  72 N3        29.99R
HARRISBURG     SUNNY     66  59  78 CALM      29.98R
YORK           PTSUNNY   63  62  97 CALM      29.99R FOG
$$

PAZ038>040-043-044-047-048-054-055-060>062-067>071-031300-
EASTERN PENNSYLVANIA

CITY           SKY/WX    TMP DP  RH WIND       PRES   REMARKS
SCRANTON       PTSUNNY   63  52  67 NE5       30.02R
MOUNT POCONO   MOSUNNY   60  46  59 N7        30.02R
ALLENTOWN      SUNNY     66  54  65 NE6       29.99R
QUAKERTOWN*    SUNNY     66  55  68 N6        30.00R
READING        SUNNY     66  58  75 CALM      29.98R
LANCASTER      SUNNY     64  59  83 CALM      29.98R
COATESVILLE    SUNNY     64  59  82 NE3       29.99R
POTTSTOWN      SUNNY     66  58  75 N3        30.00R
BLUE BELL      SUNNY     68  61  77 CALM      29.97R
DOYLESTOWN     SUNNY     66  57  72 N6        29.98R
WILLOW GROVE   NOT AVBL
NORTH PHILA    SUNNY     71  58  63 NE6       29.99R
PHILADELPHIA   PTSUNNY   71  58  63 NE7       29.97R
$$



USA.gov is the U.S. government's official web portal to all federal, state and local government web resources and services.